STARLINK-33777, 63843

Orbit data source: Space-Track

STARLINK-33777, 63843 is a payload satellite owned by SpaceX/Seattle (US) in LEO that was launched on Wed, 07 May 2025 UTC via an FALCON 9 launch vehicle from the Air Force Eastern Test Range (AFETR). Payload-class satellites include a variety of spacecraft equipped with specific instruments for various scientific and technological missions. These include communications satellites like Starlink; space stations such as the ISS; scientific satellites like the Hubble; Earth observation satellites from companies like Planet Labs, Umbra, and HawkEye 360; GPS; miniature CubeSats for education and research; and military/defense satellites.

Loading next visibility...
Identifier
63843, 2025-093H
Orbit
LEO
Last TLE update
23 hours ago
Origin
Manufacturer
SpaceX/Seattle
Mission
Operational spacecraft
Bus & Motor
STARLINK V2MO, Unknown motor
Mass
575 kg wet, ~530 kg dry
Launch date (UTC)
2025-05-07 (1 month ago)
Launch vehicle
FALCON 9
Launch site
Air Force Eastern Test Range (AFETR)
Object type
Payload
Rocket body
Debris
Shape & HBR
Unknown
Radar Cross Section
Large (>1 m²)

Expand to show TLE details & history

TLE from 23 hours ago
0 STARLINK-33777
1 63843U 25093H   25169.30490815  .00059253  00000-0  14122-2 0  9992
2 63843  43.0016 131.3765 0002583 264.3670  95.6892 15.40752034  7526
Epoch: 2025-06-18T07:19Z
TLE epoch observation values (Epoch: 2025-06-18T07:19:04.064Z)
Latitude
-0.00001°
Longitude
114.8207°
Altitude
443.838 km
Speed
7.648 km/s
True Right ascension
08h 45m 30s
True Declination
0° 00' 00"
Sunlit
Object was in daylight at epoch
Visualization orbit readout
Latitude
-8.93387°
Longitude
99.57866°
Altitude
444.494 km
Speed
7.647 km/s
Apparent Right ascension
06h 46m 43s
Apparent Declination
-24° 43' 26"
Sunlit
Object is in daylight
Visualization observer readout
Local Sidereal Time
17:26:22
Azimuth
305.996° NW
Elevation
-67.321°
Doppler factor
1
Orbital elements
Apogee altitude
447.607 km
Perigee altitude
444.082 km
Semi-major axis
6,823.982 km
Eccentricity
0.00026
Inclination
43.0016°
RAAN
131.3765°
Arg. of periapsis
264.367°
True anomaly
Unknown
Mean anomaly
95.6892°
Eccentric anomaly
Unknown
Mean motion
3.85023 °/min
Orbital period
93.5 mins
BSTAR
0.0014122
Loading maneuver chart data...
Loading SW <> Apogee altitude chart data...
Loading historical data...
Loading historical data...
Loading historical data...
Loading historical data...
Loading historical data...
Loading historical data...
Loading historical data...

STARLINK-33777 Visibility forecast

Observer location: undefined°, undefined°

Span
Click to sort rows by Start time (UTC) header in descending order
Start Az.
Max El. time (UTC)
Max El. Az.
Max El.
End time (UTC)
End Az.
4 mins2025-06-19 07:10:52.295Z252.736° W2025-06-19 07:12:52.295Z215.239° SW15.865°2025-06-19 07:14:52.295Z178.552° S
4 mins2025-06-19 23:58:52.295Z184.199° SSW2025-06-19 23:59:52.295Z159.231° S23.058°2025-06-20 00:02:52.295Z93.111° ESE
5 mins2025-06-20 01:35:52.295Z258.137° W2025-06-20 01:37:52.295Z295.731° NW43.887°2025-06-20 01:40:52.295Z70.095° E
4 mins2025-06-20 03:14:52.295Z300.996° NW2025-06-20 03:15:52.295Z331.949° NNW35.33°2025-06-20 03:18:52.295Z73.086° E
5 mins2025-06-20 04:52:52.295Z287.971° WNW2025-06-20 04:54:52.295Z112.137° ESE43.844°2025-06-20 04:57:52.295Z109.628° ESE
4 mins2025-06-20 06:30:52.295Z247.339° WSW2025-06-20 06:31:52.295Z225.807° WSW19.09°2025-06-20 06:34:52.295Z165.665° S
|